START_TIME,STEP,MOV.,M35,t_acc.,PL05,t_acc.,PL06,t_acc.,PL07,t_acc.
1981-08-30 03:00:24.470 ,2,0,0.,4.8,2.,4.8,1.,4.8,0.,4.8
1981-08-30 03:00:29.270 ,2,0,0.,4.8,1.,4.8,0.,4.8,0.,4.8
1981-08-30 03:00:34.070 ,2,0,0.,4.8,3.,4.8,0.,4.8,1.,4.8
1981-08-30 03:00:38.870 ,2,0,0.,4.8,3.,4.8,1.,4.8,1.,4.8
1981-08-30 03:00:43.670 ,2,0,0.,4.8,0.,4.8,0.,4.8,0.,4.8
1981-08-30 03:00:48.470 ,3,0,0.,4.8,2.,4.8,0.,4.8,0.,4.8
1981-08-30 03:00:53.270 ,3,0,0.,4.8,0.,4.8,1.,4.8,0.,4.8
1981-08-30 03:00:58.070 ,3,0,0.,4.8,1.,4.8,0.,4.8,1.,4.8
1981-08-30 03:01:02.870 ,3,0,0.,4.8,1.,4.8,0.,4.8,0.,4.8
1981-08-30 03:01:07.670 ,3,0,0.,4.8,2.,4.8,0.,4.8,0.,4.8
1981-08-30 03:01:12.470 ,3,0,0.,4.8,2.,4.8,0.,4.8,0.,4.8
1981-08-30 03:01:17.270 ,3,0,0.,4.8,3.,4.8,0.,4.8,0.,4.8
1981-08-30 03:01:22.070 ,3,0,0.,4.8,0.,4.8,0.,4.8,0.,4.8
1981-08-30 03:01:26.870 ,3,0,0.,4.8,3.,4.8,2.,4.8,0.,4.8
1981-08-30 03:01:31.670 ,3,0,0.,4.8,1.,4.8,0.,4.8,1.,4.8
1981-08-30 03:01:36.470 ,4,0,0.,4.8,1.,4.8,0.,4.8,1.,4.8
1981-08-30 03:01:41.270 ,4,0,0.,4.8,0.,4.8,1.,4.8,0.,4.8
1981-08-30 03:01:46.070 ,4,0,0.,4.8,3.,4.8,0.,4.8,0.,4.8
1981-08-30 03:01:50.870 ,4,0,0.,4.8,1.,4.8,0.,4.8,0.,4.8
1981-08-30 03:01:55.670 ,4,0,0.,4.8,2.,4.8,0.,4.8,0.,4.8
1981-08-30 03:02:00.470 ,4,0,0.,4.8,4.,4.8,0.,4.8,1.,4.8
1981-08-30 03:02:05.270 ,4,0,0.,4.8,1.,4.8,0.,4.8,0.,4.8
1981-08-30 03:02:10.070 ,4,0,0.,4.8,0.,4.8,0.,4.8,0.,4.8
1981-08-30 03:02:14.870 ,4,0,0.,4.8,0.,4.8,0.,4.8,0.,4.8
1981-08-30 03:02:19.670 ,4,0,0.,4.8,4.,4.8,0.,4.8,0.,4.8
1981-08-30 03:02:24.470 ,5,0,0.,4.8,1.,4.8,0.,4.8,1.,4.8
1981-08-30 03:02:29.270 ,5,0,0.,4.8,3.,4.8,0.,4.8,0.,4.8
1981-08-30 03:02:34.070 ,5,0,0.,4.8,3.,4.8,1.,4.8,0.,4.8
1981-08-30 03:02:38.870 ,5,0,0.,4.8,1.,4.8,0.,4.8,1.,4.8
1981-08-30 03:02:43.670 ,5,0,0.,4.8,0.,4.8,0.,4.8,1.,4.8
1981-08-30 03:02:48.470 ,5,0,0.,4.8,1.,4.8,0.,4.8,0.,4.8
1981-08-30 03:02:53.270 ,5,0,0.,4.8,0.,4.8,0.,4.8,0.,4.8
1981-08-30 03:02:58.070 ,5,0,0.,4.8,0.,4.8,0.,4.8,0.,4.8
1981-08-30 03:03:02.870 ,5,0,0.,4.8,1.,4.8,2.,4.8,0.,4.8
1981-08-30 03:03:07.670 ,5,0,0.,4.8,2.,4.8,0.,4.8,0.,4.8
1981-08-30 03:03:12.470 ,6,0,0.,4.8,2.,4.8,0.,4.8,0.,4.8
1981-08-30 03:03:17.270 ,6,0,0.,4.8,1.,4.8,1.,4.8,1.,4.8
1981-08-30 03:03:22.070 ,6,0,0.,4.8,2.,4.8,0.,4.8,0.,4.8
1981-08-30 03:03:26.870 ,6,0,0.,4.8,1.,4.8,0.,4.8,0.,4.8
1981-08-30 03:03:31.670 ,6,0,0.,4.8,1.,4.8,0.,4.8,0.,4.8
1981-08-30 03:03:36.470 ,6,0,0.,4.8,0.,4.8,0.,4.8,0.,4.8
1981-08-30 03:03:41.270 ,6,0,0.,4.8,2.,4.8,2.,4.8,0.,4.8
1981-08-30 03:03:46.070 ,6,0,0.,4.8,0.,4.8,1.,4.8,1.,4.8
1981-08-30 03:03:50.870 ,6,0,0.,4.8,1.,4.8,2.,4.8,0.,4.8
1981-08-30 03:03:55.670 ,6,0,0.,4.8,1.,4.8,0.,4.8,0.,4.8
1981-08-30 03:04:00.470 ,7,0,0.,4.8,0.,4.8,0.,4.8,1.,4.8
1981-08-30 03:04:05.270 ,7,0,0.,4.8,4.,4.8,2.,4.8,0.,4.8
1981-08-30 03:04:10.070 ,7,0,0.,4.8,0.,4.8,1.,4.8,0.,4.8
1981-08-30 03:04:14.870 ,7,0,0.,4.8,0.,4.8,1.,4.8,0.,4.8
1981-08-30 03:04:19.670 ,7,0,0.,4.8,0.,4.8,0.,4.8,0.,4.8
1981-08-30 03:04:24.470 ,7,0,0.,4.8,1.,4.8,0.,4.8,0.,4.8
1981-08-30 03:04:29.270 ,7,0,0.,4.8,0.,4.8,0.,4.8,0.,4.8
1981-08-30 03:04:34.070 ,7,0,0.,4.8,0.,4.8,0.,4.8,1.,4.8
1981-08-30 03:04:38.870 ,7,0,0.,4.8,1.,4.8,0.,4.8,0.,4.8
1981-08-30 03:04:43.670 ,7,0,0.,4.8,1.,4.8,0.,4.8,0.,4.8
1981-08-30 03:04:48.470 ,7,0,0.,4.8,0.,4.8,0.,4.8,0.,4.8
1981-08-30 03:04:53.270 ,7,0,0.,4.8,0.,4.8,0.,4.8,0.,4.8
1981-08-30 03:04:58.070 ,7,0,0.,4.8,1.,4.8,0.,4.8,0.,4.8
1981-08-30 03:05:02.870 ,7,0,0.,4.8,0.,4.8,0.,4.8,0.,4.8
1981-08-30 03:05:07.670 ,7,0,0.,4.8,1.,4.8,0.,4.8,0.,4.8
1981-08-30 03:05:12.470 ,7,0,0.,4.8,0.,4.8,0.,4.8,0.,4.8
1981-08-30 03:05:17.270 ,7,0,0.,4.8,0.,4.8,0.,4.8,0.,4.8
1981-08-30 03:05:22.070 ,7,0,0.,4.8,0.,4.8,0.,4.8,0.,4.8
1981-08-30 03:05:26.870 ,7,0,0.,4.8,1.,4.8,0.,4.8,0.,4.8
1981-08-30 03:05:31.670 ,7,0,0.,4.8,0.,4.8,0.,4.8,0.,4.8
1981-08-30 03:05:36.470 ,6,0,0.,4.8,0.,4.8,0.,4.8,0.,4.8
1981-08-30 03:05:41.270 ,6,0,0.,4.8,0.,4.8,1.,4.8,0.,4.8
1981-08-30 03:05:46.070 ,6,0,0.,4.8,2.,4.8,0.,4.8,1.,4.8
1981-08-30 03:05:50.870 ,6,0,0.,4.8,4.,4.8,0.,4.8,1.,4.8
1981-08-30 03:05:55.670 ,6,0,0.,4.8,2.,4.8,0.,4.8,0.,4.8
1981-08-30 03:06:00.470 ,6,0,0.,4.8,1.,4.8,1.,4.8,0.,4.8
1981-08-30 03:06:05.270 ,6,0,0.,4.8,4.,4.8,0.,4.8,0.,4.8
1981-08-30 03:06:10.070 ,6,0,0.,4.8,0.,4.8,0.,4.8,0.,4.8
1981-08-30 03:06:14.870 ,6,0,0.,4.8,0.,4.8,1.,4.8,0.,4.8
1981-08-30 03:06:19.670 ,6,0,0.,4.8,2.,4.8,0.,4.8,0.,4.8
1981-08-30 03:06:24.470 ,5,0,0.,4.8,3.,4.8,2.,4.8,0.,4.8
1981-08-30 03:06:29.270 ,5,0,0.,4.8,3.,4.8,0.,4.8,0.,4.8
1981-08-30 03:06:34.070 ,5,0,0.,4.8,1.,4.8,1.,4.8,0.,4.8
1981-08-30 03:06:38.870 ,5,0,0.,4.8,1.,4.8,0.,4.8,0.,4.8
1981-08-30 03:06:43.670 ,5,0,0.,4.8,4.,4.8,0.,4.8,1.,4.8
1981-08-30 03:06:48.470 ,5,0,0.,4.8,2.,4.8,0.,4.8,1.,4.8
1981-08-30 03:06:53.270 ,5,0,0.,4.8,3.,4.8,0.,4.8,0.,4.8
1981-08-30 03:06:58.070 ,5,0,0.,4.8,0.,4.8,2.,4.8,1.,4.8
1981-08-30 03:07:02.870 ,5,0,0.,4.8,3.,4.8,1.,4.8,0.,4.8
1981-08-30 03:07:07.670 ,5,0,0.,4.8,1.,4.8,0.,4.8,0.,4.8
1981-08-30 03:07:12.470 ,4,0,0.,4.8,2.,4.8,0.,4.8,0.,4.8
1981-08-30 03:07:17.270 ,4,0,0.,4.8,1.,4.8,1.,4.8,1.,4.8
1981-08-30 03:07:22.070 ,4,0,0.,4.8,1.,4.8,0.,4.8,0.,4.8
1981-08-30 03:07:26.870 ,4,0,0.,4.8,5.,4.8,0.,4.8,0.,4.8
1981-08-30 03:07:31.670 ,4,0,0.,4.8,0.,4.8,0.,4.8,0.,4.8
1981-08-30 03:07:36.470 ,4,0,0.,4.8,0.,4.8,0.,4.8,0.,4.8
1981-08-30 03:07:41.270 ,4,0,0.,4.8,1.,4.8,1.,4.8,0.,4.8
1981-08-30 03:07:46.070 ,4,0,0.,4.8,0.,4.8,0.,4.8,0.,4.8
1981-08-30 03:07:50.870 ,4,0,0.,4.8,0.,4.8,0.,4.8,0.,4.8
1981-08-30 03:07:55.670 ,4,0,0.,4.8,0.,4.8,0.,4.8,0.,4.8
1981-08-30 03:08:00.470 ,3,0,0.,4.8,0.,4.8,0.,4.8,0.,4.8
1981-08-30 03:08:05.270 ,3,0,0.,4.8,2.,4.8,0.,4.8,0.,4.8
1981-08-30 03:08:10.070 ,3,0,0.,4.8,1.,4.8,1.,4.8,0.,4.8
1981-08-30 03:08:14.870 ,3,0,0.,4.8,3.,4.8,2.,4.8,0.,4.8
1981-08-30 03:08:19.670 ,3,0,0.,4.8,2.,4.8,0.,4.8,0.,4.8
1981-08-30 03:08:24.470 ,3,0,0.,4.8,2.,4.8,0.,4.8,0.,4.8
1981-08-30 03:08:29.270 ,3,0,0.,4.8,1.,4.8,0.,4.8,0.,4.8
1981-08-30 03:08:34.070 ,3,0,0.,4.8,2.,4.8,0.,4.8,0.,4.8
1981-08-30 03:08:38.870 ,3,0,0.,4.8,0.,4.8,1.,4.8,0.,4.8
1981-08-30 03:08:43.670 ,3,0,0.,4.8,2.,4.8,0.,4.8,0.,4.8
1981-08-30 03:08:48.470 ,2,0,0.,4.8,1.,4.8,2.,4.8,0.,4.8
1981-08-30 03:08:53.270 ,2,0,0.,4.8,0.,4.8,0.,4.8,0.,4.8
1981-08-30 03:08:58.070 ,2,0,0.,4.8,3.,4.8,0.,4.8,0.,4.8
1981-08-30 03:09:02.870 ,2,0,0.,4.8,2.,4.8,2.,4.8,0.,4.8
1981-08-30 03:09:07.670 ,2,0,0.,4.8,0.,4.8,1.,4.8,0.,4.8
1981-08-30 03:09:12.470 ,2,0,0.,4.8,1.,4.8,2.,4.8,0.,4.8
1981-08-30 03:09:17.270 ,2,0,0.,4.8,1.,4.8,0.,4.8,0.,4.8
1981-08-30 03:09:22.070 ,2,0,0.,4.8,0.,4.8,0.,4.8,0.,4.8
1981-08-30 03:09:26.870 ,2,0,0.,4.8,2.,4.8,1.,4.8,0.,4.8
1981-08-30 03:09:31.670 ,2,0,0.,4.8,0.,4.8,0.,4.8,0.,4.8
1981-08-30 03:09:36.470 ,1,0,0.,4.8,2.,4.8,0.,4.8,0.,4.8
1981-08-30 03:09:41.270 ,1,0,0.,4.8,1.,4.8,1.,4.8,0.,4.8
1981-08-30 03:09:46.070 ,1,0,0.,4.8,3.,4.8,0.,4.8,0.,4.8
1981-08-30 03:09:50.870 ,1,0,0.,4.8,2.,4.8,0.,4.8,0.,4.8
1981-08-30 03:09:55.670 ,1,0,0.,4.8,1.,4.8,1.,4.8,0.,4.8
1981-08-30 03:10:00.470 ,1,0,0.,4.8,1.,4.8,2.,4.8,0.,4.8
1981-08-30 03:10:05.270 ,1,0,0.,4.8,1.,4.8,0.,4.8,1.,4.8
1981-08-30 03:10:10.070 ,1,0,0.,4.8,0.,4.8,0.,4.8,0.,4.8
1981-08-30 03:10:14.870 ,1,0,0.,4.8,0.,4.8,0.,4.8,0.,4.8
1981-08-30 03:10:19.670 ,1,0,0.,4.8,1.,4.8,1.,4.8,2.,4.8
1981-08-30 03:10:24.470 ,0,0,0.,4.8,2.,4.8,0.,4.8,0.,4.8
1981-08-30 03:10:29.270 ,0,0,0.,4.8,1.,4.8,0.,4.8,0.,4.8
1981-08-30 03:10:34.070 ,0,0,0.,4.8,1.,4.8,3.,4.8,0.,4.8
1981-08-30 03:10:38.870 ,0,0,0.,4.8,3.,4.8,1.,4.8,0.,4.8
1981-08-30 03:10:43.670 ,0,0,0.,4.8,0.,4.8,0.,4.8,0.,4.8
1981-08-30 03:10:48.470 ,0,0,0.,4.8,0.,4.8,0.,4.8,1.,4.8
1981-08-30 03:10:53.270 ,0,0,0.,4.8,0.,4.8,1.,4.8,1.,4.8
1981-08-30 03:10:58.070 ,0,0,0.,4.8,0.,4.8,0.,4.8,0.,4.8
1981-08-30 03:11:02.870 ,0,0,0.,4.8,2.,4.8,1.,4.8,0.,4.8
1981-08-30 03:11:07.670 ,0,0,0.,4.8,5.,4.8,0.,4.8,0.,4.8
1981-08-30 03:11:12.470 ,0,0,0.,4.8,1.,4.8,3.,4.8,0.,4.8
1981-08-30 03:11:17.270 ,0,0,0.,4.8,3.,4.8,0.,4.8,0.,4.8
1981-08-30 03:11:22.070 ,0,0,0.,4.8,2.,4.8,0.,4.8,0.,4.8
1981-08-30 03:11:26.870 ,0,0,0.,4.8,3.,4.8,0.,4.8,0.,4.8
1981-08-30 03:11:31.670 ,0,0,0.,4.8,3.,4.8,0.,4.8,0.,4.8
1981-08-30 03:11:36.470 ,0,0,0.,4.8,1.,4.8,0.,4.8,0.,4.8
1981-08-30 03:11:41.270 ,0,0,0.,4.8,0.,4.8,1.,4.8,1.,4.8
1981-08-30 03:11:46.070 ,0,0,0.,4.8,2.,4.8,0.,4.8,0.,4.8
1981-08-30 03:11:50.870 ,0,0,0.,4.8,1.,4.8,0.,4.8,0.,4.8
1981-08-30 03:11:55.670 ,0,0,0.,4.8,0.,4.8,0.,4.8,0.,4.8
1981-08-30 03:12:00.470 ,1,0,0.,4.8,2.,4.8,0.,4.8,0.,4.8
1981-08-30 03:12:05.270 ,1,0,0.,4.8,1.,4.8,0.,4.8,0.,4.8
1981-08-30 03:12:10.070 ,1,0,0.,4.8,1.,4.8,0.,4.8,0.,4.8
1981-08-30 03:12:14.870 ,1,0,0.,4.8,5.,4.8,1.,4.8,0.,4.8
1981-08-30 03:12:19.670 ,1,0,0.,4.8,1.,4.8,0.,4.8,0.,4.8
1981-08-30 03:12:24.470 ,1,0,0.,4.8,3.,4.8,1.,4.8,0.,4.8
1981-08-30 03:12:29.270 ,1,0,0.,4.8,0.,4.8,0.,4.8,0.,4.8
1981-08-30 03:12:34.070 ,1,0,0.,4.8,2.,4.8,0.,4.8,0.,4.8
1981-08-30 03:12:38.870 ,1,0,0.,4.8,2.,4.8,0.,4.8,0.,4.8
1981-08-30 03:12:43.670 ,1,0,0.,4.8,1.,4.8,1.,4.8,0.,4.8
1981-08-30 03:12:48.470 ,2,0,0.,4.8,2.,4.8,0.,4.8,0.,4.8
1981-08-30 03:12:53.270 ,2,0,0.,4.8,1.,4.8,0.,4.8,0.,4.8
1981-08-30 03:12:58.070 ,2,0,0.,4.8,2.,4.8,1.,4.8,0.,4.8
1981-08-30 03:13:02.870 ,2,0,0.,4.8,0.,4.8,0.,4.8,0.,4.8
1981-08-30 03:13:07.670 ,2,0,0.,4.8,4.,4.8,0.,4.8,0.,4.8
1981-08-30 03:13:12.470 ,2,0,0.,4.8,0.,4.8,0.,4.8,0.,4.8
1981-08-30 03:13:17.270 ,2,0,0.,4.8,3.,4.8,1.,4.8,0.,4.8
1981-08-30 03:13:22.070 ,2,0,0.,4.8,5.,4.8,0.,4.8,0.,4.8
1981-08-30 03:13:26.870 ,2,0,0.,4.8,1.,4.8,1.,4.8,0.,4.8
1981-08-30 03:13:31.670 ,2,0,0.,4.8,1.,4.8,0.,4.8,0.,4.8
1981-08-30 03:13:36.470 ,3,0,0.,4.8,0.,4.8,1.,4.8,0.,4.8
1981-08-30 03:13:41.270 ,3,0,0.,4.8,1.,4.8,0.,4.8,0.,4.8
1981-08-30 03:13:46.070 ,3,0,0.,4.8,3.,4.8,1.,4.8,0.,4.8
1981-08-30 03:13:50.870 ,3,0,0.,4.8,0.,4.8,0.,4.8,0.,4.8
1981-08-30 03:13:55.670 ,3,0,0.,4.8,3.,4.8,0.,4.8,0.,4.8
1981-08-30 03:14:00.470 ,4,0,0.,4.8,3.,4.8,0.,4.8,0.,4.8
1981-08-30 03:14:05.270 ,4,0,0.,4.8,0.,4.8,0.,4.8,0.,4.8
1981-08-30 03:14:10.070 ,4,0,0.,4.8,0.,4.8,1.,4.8,0.,4.8
1981-08-30 03:14:14.870 ,4,0,0.,4.8,1.,4.8,0.,4.8,0.,4.8
1981-08-30 03:14:19.670 ,4,0,0.,4.8,1.,4.8,1.,4.8,0.,4.8
1981-08-30 03:14:24.470 ,5,0,0.,4.8,1.,4.8,0.,4.8,1.,4.8
1981-08-30 03:14:29.270 ,5,0,0.,4.8,2.,4.8,0.,4.8,1.,4.8
1981-08-30 03:14:34.070 ,5,0,0.,4.8,2.,4.8,0.,4.8,0.,4.8
1981-08-30 03:14:38.870 ,5,0,0.,4.8,0.,4.8,0.,4.8,0.,4.8
1981-08-30 03:14:43.670 ,5,0,0.,4.8,2.,4.8,0.,4.8,0.,4.8
1981-08-30 03:14:48.470 ,6,0,0.,4.8,1.,4.8,1.,4.8,0.,4.8
1981-08-30 03:14:53.270 ,6,0,0.,4.8,1.,4.8,0.,4.8,0.,4.8
1981-08-30 03:14:58.070 ,6,0,0.,4.8,2.,4.8,0.,4.8,0.,4.8
1981-08-30 03:15:02.870 ,6,0,0.,4.8,1.,4.8,0.,4.8,0.,4.8
1981-08-30 03:15:07.670 ,6,0,0.,4.8,0.,4.8,2.,4.8,1.,4.8
1981-08-30 03:15:12.470 ,7,0,0.,4.8,1.,4.8,1.,4.8,0.,4.8
1981-08-30 03:15:17.270 ,7,0,0.,4.8,3.,4.8,1.,4.8,0.,4.8
1981-08-30 03:15:22.070 ,7,0,0.,4.8,0.,4.8,0.,4.8,0.,4.8
1981-08-30 03:15:26.870 ,7,0,0.,4.8,1.,4.8,0.,4.8,0.,4.8
1981-08-30 03:15:31.670 ,7,0,0.,4.8,1.,4.8,0.,4.8,0.,4.8
1981-08-30 03:15:36.470 ,7,0,0.,4.8,0.,4.8,0.,4.8,0.,4.8
1981-08-30 03:15:41.270 ,7,0,0.,4.8,2.,4.8,0.,4.8,0.,4.8
1981-08-30 03:15:46.070 ,7,0,0.,4.8,0.,4.8,1.,4.8,1.,4.8
1981-08-30 03:15:50.870 ,7,0,0.,4.8,0.,4.8,0.,4.8,0.,4.8
1981-08-30 03:15:55.670 ,7,0,0.,4.8,0.,4.8,0.,4.8,0.,4.8
1981-08-30 03:16:00.470 ,6,0,0.,4.8,1.,4.8,0.,4.8,0.,4.8
1981-08-30 03:16:05.270 ,6,0,0.,4.8,1.,4.8,0.,4.8,0.,4.8
1981-08-30 03:16:10.070 ,6,0,0.,4.8,2.,4.8,0.,4.8,0.,4.8
1981-08-30 03:16:14.870 ,6,0,0.,4.8,1.,4.8,1.,4.8,0.,4.8
1981-08-30 03:16:19.670 ,6,0,0.,4.8,1.,4.8,0.,4.8,0.,4.8
1981-08-30 03:16:24.470 ,5,0,0.,4.8,1.,4.8,2.,4.8,0.,4.8
1981-08-30 03:16:29.270 ,5,0,0.,4.8,2.,4.8,0.,4.8,0.,4.8
1981-08-30 03:16:34.070 ,5,0,0.,4.8,1.,4.8,1.,4.8,0.,4.8
1981-08-30 03:16:38.870 ,5,0,0.,4.8,2.,4.8,1.,4.8,0.,4.8
1981-08-30 03:16:43.670 ,5,0,0.,4.8,1.,4.8,0.,4.8,0.,4.8
1981-08-30 03:16:48.470 ,4,0,0.,4.8,1.,4.8,0.,4.8,0.,4.8
1981-08-30 03:16:53.270 ,4,0,0.,4.8,1.,4.8,1.,4.8,1.,4.8
1981-08-30 03:16:58.070 ,4,0,0.,4.8,4.,4.8,0.,4.8,1.,4.8
1981-08-30 03:17:02.870 ,4,0,0.,4.8,4.,4.8,0.,4.8,0.,4.8
1981-08-30 03:17:07.670 ,4,0,0.,4.8,1.,4.8,1.,4.8,0.,4.8
1981-08-30 03:17:12.470 ,3,0,0.,4.8,5.,4.8,0.,4.8,0.,4.8
1981-08-30 03:17:17.270 ,3,0,0.,4.8,0.,4.8,0.,4.8,1.,4.8
1981-08-30 03:17:22.070 ,3,0,0.,4.8,1.,4.8,0.,4.8,0.,4.8
1981-08-30 03:17:26.870 ,3,0,0.,4.8,3.,4.8,1.,4.8,1.,4.8
1981-08-30 03:17:31.670 ,3,0,0.,4.8,2.,4.8,2.,4.8,0.,4.8
1981-08-30 03:17:36.470 ,2,0,0.,4.8,2.,4.8,0.,4.8,0.,4.8
1981-08-30 03:17:41.270 ,2,0,0.,4.8,0.,4.8,1.,4.8,0.,4.8
1981-08-30 03:17:46.070 ,2,0,0.,4.8,0.,4.8,1.,4.8,3.,4.8
1981-08-30 03:17:50.870 ,2,0,0.,4.8,2.,4.8,0.,4.8,0.,4.8
1981-08-30 03:17:55.670 ,2,0,0.,4.8,1.,4.8,0.,4.8,0.,4.8
1981-08-30 03:18:00.470 ,1,0,0.,4.8,1.,4.8,0.,4.8,0.,4.8
1981-08-30 03:18:05.270 ,1,0,0.,4.8,4.,4.8,1.,4.8,0.,4.8
1981-08-30 03:18:10.070 ,1,0,0.,4.8,1.,4.8,1.,4.8,0.,4.8
1981-08-30 03:18:14.870 ,1,0,0.,4.8,0.,4.8,0.,4.8,0.,4.8
1981-08-30 03:18:19.670 ,1,0,0.,4.8,3.,4.8,2.,4.8,1.,4.8
1981-08-30 03:18:24.470 ,0,0,0.,4.8,0.,4.8,0.,4.8,0.,4.8
1981-08-30 03:18:29.270 ,0,0,0.,4.8,0.,4.8,1.,4.8,0.,4.8
1981-08-30 03:18:34.070 ,0,0,0.,4.8,0.,4.8,1.,4.8,1.,4.8
1981-08-30 03:18:38.870 ,0,0,0.,4.8,2.,4.8,0.,4.8,0.,4.8
1981-08-30 03:18:43.670 ,0,0,0.,4.8,2.,4.8,0.,4.8,0.,4.8
1981-08-30 03:18:48.470 ,0,0,0.,4.8,3.,4.8,0.,4.8,0.,4.8
1981-08-30 03:18:53.270 ,0,0,0.,4.8,3.,4.8,2.,4.8,1.,4.8
1981-08-30 03:18:58.070 ,0,0,0.,4.8,1.,4.8,1.,4.8,1.,4.8
1981-08-30 03:19:02.870 ,0,0,0.,4.8,2.,4.8,0.,4.8,0.,4.8
1981-08-30 03:19:07.670 ,0,0,,0,,0,,0,,0
1981-08-30 03:19:12.470 ,1,0,0.,4.8,1.,4.8,2.,4.8,0.,4.8
1981-08-30 03:19:17.270 ,1,0,0.,4.8,1.,4.8,1.,4.8,1.,4.8
1981-08-30 03:19:22.070 ,1,0,0.,4.8,1.,4.8,1.,4.8,0.,4.8
1981-08-30 03:19:26.870 ,1,0,0.,4.8,1.,4.8,1.,4.8,2.,4.8
1981-08-30 03:19:31.670 ,1,0,0.,4.8,0.,4.8,1.,4.8,2.,4.8
1981-08-30 03:19:36.470 ,2,0,0.,4.8,0.,4.8,0.,4.8,1.,4.8
1981-08-30 03:19:41.270 ,2,0,0.,4.8,1.,4.8,0.,4.8,0.,4.8
1981-08-30 03:19:46.070 ,2,0,0.,4.8,1.,4.8,0.,4.8,1.,4.8
1981-08-30 03:19:50.870 ,2,0,0.,4.8,1.,4.8,0.,4.8,0.,4.8
1981-08-30 03:19:55.670 ,2,0,0.,4.8,1.,4.8,0.,4.8,0.,4.8
1981-08-30 03:20:00.470 ,3,0,0.,4.8,2.,4.8,1.,4.8,0.,4.8
1981-08-30 03:20:05.270 ,3,0,0.,4.8,2.,4.8,0.,4.8,0.,4.8
1981-08-30 03:20:10.070 ,3,0,0.,4.8,0.,4.8,1.,4.8,1.,4.8
1981-08-30 03:20:14.870 ,3,0,0.,4.8,0.,4.8,1.,4.8,0.,4.8
1981-08-30 03:20:19.670 ,3,0,0.,4.8,1.,4.8,0.,4.8,1.,4.8
1981-08-30 03:20:24.470 ,3,0,0.,4.8,2.,4.8,0.,4.8,0.,4.8
1981-08-30 03:20:29.270 ,3,0,0.,4.8,4.,4.8,0.,4.8,0.,4.8
1981-08-30 03:20:34.070 ,3,0,0.,4.8,2.,4.8,0.,4.8,0.,4.8
1981-08-30 03:20:38.870 ,3,0,0.,4.8,4.,4.8,1.,4.8,0.,4.8
1981-08-30 03:20:43.670 ,3,0,0.,4.8,1.,4.8,1.,4.8,0.,4.8
1981-08-30 03:20:48.470 ,4,0,0.,4.8,1.,4.8,1.,4.8,0.,4.8
1981-08-30 03:20:53.270 ,4,0,0.,4.8,1.,4.8,1.,4.8,1.,4.8
1981-08-30 03:20:58.070 ,4,0,0.,4.8,1.,4.8,0.,4.8,0.,4.8
1981-08-30 03:21:02.870 ,4,0,0.,4.8,2.,4.8,1.,4.8,0.,4.8
1981-08-30 03:21:07.670 ,4,0,0.,4.8,1.,4.8,1.,4.8,0.,4.8
1981-08-30 03:21:12.470 ,4,0,0.,4.8,1.,4.8,0.,4.8,0.,4.8
1981-08-30 03:21:17.270 ,4,0,0.,4.8,2.,4.8,0.,4.8,1.,4.8
1981-08-30 03:21:22.070 ,4,0,0.,4.8,2.,4.8,1.,4.8,0.,4.8
1981-08-30 03:21:26.870 ,4,0,0.,4.8,1.,4.8,1.,4.8,0.,4.8
1981-08-30 03:21:31.670 ,4,0,0.,4.8,0.,4.8,1.,4.8,0.,4.8
1981-08-30 03:21:36.470 ,5,0,0.,4.8,2.,4.8,0.,4.8,0.,4.8
1981-08-30 03:21:41.270 ,5,0,0.,4.8,2.,4.8,0.,4.8,0.,4.8
1981-08-30 03:21:46.070 ,5,0,0.,4.8,0.,4.8,1.,4.8,1.,4.8
1981-08-30 03:21:50.870 ,5,0,0.,4.8,0.,4.8,1.,4.8,0.,4.8
1981-08-30 03:21:55.670 ,5,0,0.,4.8,1.,4.8,1.,4.8,0.,4.8
1981-08-30 03:22:00.470 ,5,0,0.,4.8,0.,4.8,0.,4.8,0.,4.8
1981-08-30 03:22:05.270 ,5,0,0.,4.8,1.,4.8,0.,4.8,1.,4.8
1981-08-30 03:22:10.070 ,5,0,0.,4.8,0.,4.8,0.,4.8,1.,4.8
1981-08-30 03:22:14.870 ,5,0,0.,4.8,1.,4.8,1.,4.8,0.,4.8
1981-08-30 03:22:19.670 ,5,0,0.,4.8,1.,4.8,2.,4.8,0.,4.8
1981-08-30 03:22:24.470 ,6,0,0.,4.8,3.,4.8,3.,4.8,0.,4.8
1981-08-30 03:22:29.270 ,6,0,0.,4.8,1.,4.8,0.,4.8,1.,4.8
1981-08-30 03:22:34.070 ,6,0,0.,4.8,2.,4.8,2.,4.8,1.,4.8
1981-08-30 03:22:38.870 ,6,0,0.,4.8,2.,4.8,2.,4.8,0.,4.8
1981-08-30 03:22:43.670 ,6,0,0.,4.8,3.,4.8,1.,4.8,0.,4.8
1981-08-30 03:22:48.470 ,6,0,0.,4.8,1.,4.8,0.,4.8,0.,4.8
1981-08-30 03:22:53.270 ,6,0,0.,4.8,2.,4.8,0.,4.8,0.,4.8
1981-08-30 03:22:58.070 ,6,0,0.,4.8,1.,4.8,0.,4.8,0.,4.8
1981-08-30 03:23:02.870 ,6,0,0.,4.8,4.,4.8,1.,4.8,0.,4.8
1981-08-30 03:23:07.670 ,6,0,0.,4.8,0.,4.8,0.,4.8,0.,4.8
1981-08-30 03:23:12.470 ,7,0,0.,4.8,3.,4.8,0.,4.8,0.,4.8
1981-08-30 03:23:17.270 ,7,0,0.,4.8,1.,4.8,1.,4.8,1.,4.8
1981-08-30 03:23:22.070 ,7,0,0.,4.8,0.,4.8,0.,4.8,0.,4.8
1981-08-30 03:23:26.870 ,7,0,0.,4.8,0.,4.8,0.,4.8,0.,4.8
1981-08-30 03:23:31.670 ,7,0,0.,4.8,0.,4.8,0.,4.8,0.,4.8
1981-08-30 03:23:36.470 ,7,0,0.,4.8,0.,4.8,0.,4.8,0.,4.8
1981-08-30 03:23:41.270 ,7,0,0.,4.8,0.,4.8,0.,4.8,0.,4.8
1981-08-30 03:23:46.070 ,7,0,0.,4.8,0.,4.8,0.,4.8,0.,4.8
1981-08-30 03:23:50.870 ,7,0,0.,4.8,0.,4.8,1.,4.8,1.,4.8
1981-08-30 03:23:55.670 ,7,0,0.,4.8,0.,4.8,0.,4.8,0.,4.8
1981-08-30 03:24:00.470 ,7,0,0.,4.8,0.,4.8,0.,4.8,1.,4.8
1981-08-30 03:24:05.270 ,7,0,0.,4.8,0.,4.8,0.,4.8,0.,4.8
1981-08-30 03:24:10.070 ,7,0,0.,4.8,2.,4.8,0.,4.8,0.,4.8
1981-08-30 03:24:14.870 ,7,0,0.,4.8,1.,4.8,0.,4.8,0.,4.8
1981-08-30 03:24:19.670 ,7,0,0.,4.8,1.,4.8,0.,4.8,0.,4.8
1981-08-30 03:24:24.470 ,7,0,0.,4.8,0.,4.8,0.,4.8,0.,4.8
1981-08-30 03:24:29.270 ,7,0,0.,4.8,0.,4.8,0.,4.8,0.,4.8
1981-08-30 03:24:34.070 ,7,0,0.,4.8,0.,4.8,0.,4.8,0.,4.8
1981-08-30 03:24:38.870 ,7,0,0.,4.8,0.,4.8,1.,4.8,0.,4.8
1981-08-30 03:24:43.670 ,7,0,0.,4.8,2.,4.8,0.,4.8,0.,4.8
1981-08-30 03:24:48.470 ,6,0,0.,4.8,0.,4.8,0.,4.8,1.,4.8
1981-08-30 03:24:53.270 ,6,0,0.,4.8,1.,4.8,0.,4.8,1.,4.8
1981-08-30 03:24:58.070 ,6,0,0.,4.8,4.,4.8,0.,4.8,0.,4.8
1981-08-30 03:25:02.870 ,6,0,0.,4.8,3.,4.8,0.,4.8,0.,4.8
1981-08-30 03:25:07.670 ,6,0,0.,4.8,2.,4.8,1.,4.8,0.,4.8
1981-08-30 03:25:12.470 ,6,0,0.,4.8,3.,4.8,0.,4.8,0.,4.8
1981-08-30 03:25:17.270 ,6,0,0.,4.8,1.,4.8,2.,4.8,0.,4.8
1981-08-30 03:25:22.070 ,6,0,0.,4.8,4.,4.8,1.,4.8,0.,4.8
1981-08-30 03:25:26.870 ,6,0,0.,4.8,3.,4.8,0.,4.8,0.,4.8
1981-08-30 03:25:31.670 ,6,0,0.,4.8,1.,4.8,0.,4.8,0.,4.8
1981-08-30 03:25:36.470 ,5,0,0.,4.8,2.,4.8,0.,4.8,0.,4.8
1981-08-30 03:25:41.270 ,5,0,0.,4.8,1.,4.8,0.,4.8,0.,4.8
1981-08-30 03:25:46.070 ,5,0,0.,4.8,3.,4.8,1.,4.8,0.,4.8
1981-08-30 03:25:50.870 ,5,0,0.,4.8,0.,4.8,0.,4.8,0.,4.8
1981-08-30 03:25:55.670 ,5,0,0.,4.8,2.,4.8,0.,4.8,1.,4.8
1981-08-30 03:26:00.470 ,5,0,0.,4.8,2.,4.8,0.,4.8,0.,4.8
1981-08-30 03:26:05.270 ,5,0,0.,4.8,2.,4.8,0.,4.8,0.,4.8
1981-08-30 03:26:10.070 ,5,0,0.,4.8,0.,4.8,1.,4.8,0.,4.8
1981-08-30 03:26:14.870 ,5,0,0.,4.8,2.,4.8,1.,4.8,0.,4.8
1981-08-30 03:26:19.670 ,5,0,0.,4.8,2.,4.8,0.,4.8,0.,4.8
1981-08-30 03:26:24.470 ,4,0,0.,4.8,2.,4.8,0.,4.8,0.,4.8
1981-08-30 03:26:29.270 ,4,0,0.,4.8,2.,4.8,0.,4.8,0.,4.8
1981-08-30 03:26:34.070 ,4,0,0.,4.8,0.,4.8,1.,4.8,0.,4.8
1981-08-30 03:26:38.870 ,4,0,0.,4.8,3.,4.8,1.,4.8,0.,4.8
1981-08-30 03:26:43.670 ,4,0,0.,4.8,2.,4.8,0.,4.8,0.,4.8
1981-08-30 03:26:48.470 ,4,0,0.,4.8,0.,4.8,0.,4.8,0.,4.8
1981-08-30 03:26:53.270 ,4,0,0.,4.8,0.,4.8,0.,4.8,0.,4.8
1981-08-30 03:26:58.070 ,4,0,0.,4.8,1.,4.8,0.,4.8,0.,4.8
1981-08-30 03:27:02.870 ,4,0,0.,4.8,4.,4.8,0.,4.8,0.,4.8
1981-08-30 03:27:07.670 ,4,0,0.,4.8,0.,4.8,0.,4.8,0.,4.8
1981-08-30 03:27:12.470 ,3,0,0.,4.8,1.,4.8,2.,4.8,0.,4.8
1981-08-30 03:27:17.270 ,3,0,0.,4.8,1.,4.8,1.,4.8,0.,4.8
1981-08-30 03:27:22.070 ,3,0,0.,4.8,0.,4.8,0.,4.8,0.,4.8
1981-08-30 03:27:26.870 ,3,0,0.,4.8,2.,4.8,0.,4.8,1.,4.8
1981-08-30 03:27:31.670 ,3,0,0.,4.8,1.,4.8,1.,4.8,0.,4.8
1981-08-30 03:27:36.470 ,3,0,0.,4.8,1.,4.8,0.,4.8,0.,4.8
1981-08-30 03:27:41.270 ,3,0,0.,4.8,3.,4.8,1.,4.8,0.,4.8
1981-08-30 03:27:46.070 ,3,0,0.,4.8,0.,4.8,1.,4.8,0.,4.8
1981-08-30 03:27:50.870 ,3,0,0.,4.8,1.,4.8,1.,4.8,0.,4.8
1981-08-30 03:27:55.670 ,3,0,0.,4.8,1.,4.8,0.,4.8,0.,4.8
1981-08-30 03:28:00.470 ,2,0,0.,4.8,2.,4.8,1.,4.8,0.,4.8
1981-08-30 03:28:05.270 ,2,0,0.,4.8,0.,4.8,1.,4.8,1.,4.8
1981-08-30 03:28:10.070 ,2,0,0.,4.8,1.,4.8,1.,4.8,0.,4.8
1981-08-30 03:28:14.870 ,2,0,0.,4.8,5.,4.8,3.,4.8,0.,4.8
1981-08-30 03:28:19.670 ,2,0,0.,4.8,0.,4.8,0.,4.8,0.,4.8
1981-08-30 03:28:24.470 ,2,0,0.,4.8,1.,4.8,1.,4.8,0.,4.8
1981-08-30 03:28:29.270 ,2,0,0.,4.8,3.,4.8,1.,4.8,0.,4.8
1981-08-30 03:28:34.070 ,2,0,0.,4.8,2.,4.8,0.,4.8,1.,4.8
1981-08-30 03:28:38.870 ,2,0,0.,4.8,2.,4.8,0.,4.8,1.,4.8
1981-08-30 03:28:43.670 ,2,0,0.,4.8,2.,4.8,0.,4.8,0.,4.8
1981-08-30 03:28:48.470 ,1,0,0.,4.8,0.,4.8,2.,4.8,0.,4.8
1981-08-30 03:28:53.270 ,1,0,0.,4.8,2.,4.8,1.,4.8,0.,4.8
1981-08-30 03:28:58.070 ,1,0,0.,4.8,5.,4.8,0.,4.8,1.,4.8
1981-08-30 03:29:02.870 ,1,0,0.,4.8,0.,4.8,0.,4.8,0.,4.8
1981-08-30 03:29:07.670 ,1,0,0.,4.8,3.,4.8,0.,4.8,1.,4.8
1981-08-30 03:29:12.470 ,1,0,0.,4.8,1.,4.8,0.,4.8,0.,4.8
1981-08-30 03:29:17.270 ,1,0,0.,4.8,2.,4.8,0.,4.8,0.,4.8
1981-08-30 03:29:22.070 ,1,0,0.,4.8,1.,4.8,1.,4.8,0.,4.8
1981-08-30 03:29:26.870 ,1,0,0.,4.8,1.,4.8,0.,4.8,0.,4.8
1981-08-30 03:29:31.670 ,1,0,0.,4.8,2.,4.8,0.,4.8,0.,4.8
1981-08-30 03:29:36.470 ,0,0,0.,4.8,2.,4.8,1.,4.8,0.,4.8
1981-08-30 03:29:41.270 ,0,0,0.,4.8,2.,4.8,1.,4.8,1.,4.8
1981-08-30 03:29:46.070 ,0,0,0.,4.8,2.,4.8,0.,4.8,0.,4.8
1981-08-30 03:29:50.870 ,0,0,0.,4.8,1.,4.8,0.,4.8,1.,4.8
1981-08-30 03:29:55.670 ,0,0,0.,4.8,2.,4.8,0.,4.8,0.,4.8
1981-08-30 03:30:00.470 ,0,0,0.,4.8,5.,4.8,1.,4.8,1.,4.8
1981-08-30 03:30:05.270 ,0,0,0.,4.8,2.,4.8,0.,4.8,0.,4.8
1981-08-30 03:30:10.070 ,0,0,0.,4.8,3.,4.8,0.,4.8,0.,4.8
1981-08-30 03:30:14.870 ,0,0,0.,4.8,0.,4.8,0.,4.8,0.,4.8
1981-08-30 03:30:19.670 ,0,0,0.,4.8,4.,4.8,1.,4.8,0.,4.8
1981-08-30 03:30:24.470 ,0,0,0.,4.8,1.,4.8,1.,4.8,0.,4.8
1981-08-30 03:30:29.270 ,0,0,0.,4.8,0.,4.8,1.,4.8,0.,4.8
1981-08-30 03:30:34.070 ,0,0,0.,4.8,2.,4.8,2.,4.8,0.,4.8
1981-08-30 03:30:38.870 ,0,0,0.,4.8,2.,4.8,0.,4.8,0.,4.8
1981-08-30 03:30:43.670 ,0,0,0.,4.8,2.,4.8,1.,4.8,0.,4.8
1981-08-30 03:30:48.470 ,0,0,0.,4.8,2.,4.8,2.,4.8,0.,4.8
1981-08-30 03:30:53.270 ,0,0,0.,4.8,3.,4.8,2.,4.8,0.,4.8
1981-08-30 03:30:58.070 ,0,0,0.,4.8,1.,4.8,0.,4.8,0.,4.8
1981-08-30 03:31:02.870 ,0,0,0.,4.8,4.,4.8,0.,4.8,0.,4.8
1981-08-30 03:31:07.670 ,0,0,0.,4.8,2.,4.8,2.,4.8,1.,4.8
1981-08-30 03:31:12.470 ,1,0,0.,4.8,0.,4.8,0.,4.8,0.,4.8
1981-08-30 03:31:17.270 ,1,0,0.,4.8,1.,4.8,0.,4.8,1.,4.8
1981-08-30 03:31:22.070 ,1,0,0.,4.8,1.,4.8,2.,4.8,0.,4.8
1981-08-30 03:31:26.870 ,1,0,0.,4.8,2.,4.8,0.,4.8,0.,4.8
1981-08-30 03:31:31.670 ,1,0,0.,4.8,1.,4.8,2.,4.8,0.,4.8
1981-08-30 03:31:36.470 ,1,0,0.,4.8,2.,4.8,0.,4.8,1.,4.8
1981-08-30 03:31:41.270 ,1,0,0.,4.8,4.,4.8,2.,4.8,0.,4.8
1981-08-30 03:31:46.070 ,1,0,0.,4.8,2.,4.8,0.,4.8,1.,4.8
1981-08-30 03:31:50.870 ,1,0,0.,4.8,2.,4.8,1.,4.8,0.,4.8
1981-08-30 03:31:55.670 ,1,0,0.,4.8,4.,4.8,1.,4.8,0.,4.8
1981-08-30 03:32:00.470 ,2,0,0.,4.8,4.,4.8,2.,4.8,0.,4.8
1981-08-30 03:32:05.270 ,2,0,0.,4.8,2.,4.8,1.,4.8,0.,4.8
1981-08-30 03:32:10.070 ,2,0,0.,4.8,0.,4.8,0.,4.8,0.,4.8
1981-08-30 03:32:14.870 ,2,0,0.,4.8,0.,4.8,0.,4.8,0.,4.8
1981-08-30 03:32:19.670 ,2,0,0.,4.8,2.,4.8,0.,4.8,0.,4.8
1981-08-30 03:32:24.470 ,2,0,0.,4.8,5.,4.8,1.,4.8,0.,4.8
1981-08-30 03:32:29.270 ,2,0,0.,4.8,2.,4.8,0.,4.8,0.,4.8
1981-08-30 03:32:34.070 ,2,0,0.,4.8,1.,4.8,0.,4.8,0.,4.8
1981-08-30 03:32:38.870 ,2,0,0.,4.8,1.,4.8,2.,4.8,0.,4.8
1981-08-30 03:32:43.670 ,2,0,0.,4.8,3.,4.8,0.,4.8,0.,4.8
1981-08-30 03:32:48.470 ,3,0,0.,4.8,0.,4.8,1.,4.8,1.,4.8
1981-08-30 03:32:53.270 ,3,0,0.,4.8,1.,4.8,0.,4.8,0.,4.8
1981-08-30 03:32:58.070 ,3,0,0.,4.8,1.,4.8,0.,4.8,1.,4.8
1981-08-30 03:33:02.870 ,3,0,0.,4.8,1.,4.8,0.,4.8,0.,4.8
1981-08-30 03:33:07.670 ,3,0,0.,4.8,2.,4.8,0.,4.8,0.,4.8
1981-08-30 03:33:12.470 ,4,0,0.,4.8,1.,4.8,0.,4.8,0.,4.8
1981-08-30 03:33:17.270 ,4,0,0.,4.8,0.,4.8,0.,4.8,0.,4.8